Location: Newark
(36.0797°N, 3.9744°E)
Time: 02:22:45
(UTC+00:00)

Vanguard 2 - Pass Details

Date: 06 December 2019
Orbit: 553 x 2938 km, 32.9° (Epoch: 23 January)

Event Time Altitude Azimuth Distance (km) Brightness Sun altitude
Exits shadow 04:47:10 25° 261° (W) 4,619 10.9 -22.3°
Maximum altitude 04:59:56 80° 180° (S) 2,700 10.2 -19.8°
Drops below altitude 10° 05:13:26 10° 96° (E) 4,467 12.7 -17.1°
Sets 05:16:22 0° 95° (E) 5,195 13.4 -16.6°
